Location: Croisilles
(50.1998°N, 2.8793°E)
Time: 03:15:07
(UTC+00:00)

Cosmos 2098 Rocket - Pass Details

Date: 21 January 2021
Orbit: 366 x 1182 km, 82.9° (Epoch: 24 February)

Event Time Altitude Azimuth Distance (km) Brightness Sun altitude
Rises 19:28:40 0° 194° (SSW) 3,879 7.3 -29.1°
Reaches altitude 10° 19:31:12 10° 196° (SSW) 2,993 6.6 -29.5°
Maximum altitude 19:38:24 75° 281° (W) 1,225 4.5 -30.7°
Drops below altitude 10° 19:45:51 10° 7° (N) 3,084 6.6 -31.9°
Sets 19:48:30 0° 10° (N) 4,002 7.2 -32.3°
